Portada
METAR-TAF:

METAR-TAF

Aeropuertos :

Valledupar, Colombia

Aeropuerto Alfonso López Pumarejo

latitud: 10-26N, longitud: 073-15W, altitud: 138 m

Observación

El informe se hizo hace 1 hora y 9 minutos, a las 22:00 UTC
Viento 6 kt del este
Temperatura 31°C
Humedad 55%
Presión 1009 hPa
Visibilidad 10 km o más
Escasas nubes a una altura de 1500 ft
Nubes dispersas a una altura de 9000 ft
chaparrones en las proximidades

METAR: SKVP 212200Z 08006KT 9999 VCSH FEW015 SCT090 31/21 A2979 RMK VCSH W/NW

Hora: 18:09 (23:09 UTC)


TAF: falta

Observaciones y pronósticos meteorológicos de más de 4000 aeropuertos (mensajes METAR y TAF).

Los puntos amarillos y rojos representan las estaciones disponibles.

Ponga el ratón en el punto deseado para ver el nombre de la estación.

Haga clic para ver las observaciones y los pronósticos meteorológicos.

Para cambiar el mapa : haga clic en los botones verdes con una cruz de color negro para hacer un zoom, en el botón verde con un guión para alejar o en las flechas verdes para mapas adyacentes.


METAR-TAF: